Retour au catalogue

SL-3 DEB

ActifPO
NORAD 14632·DEBRIS·🇷🇺 Russia

Lancé Jan 6, 1977 depuis Plesetsk Cosmodrome

Loading…

Prochains Passages (prochaines 24 heures)

TLE

FraisSource: Space-Track

Époque: Sep 14, 2026, 13:06 UTC

1 14632U 77002E   26257.54592193  .00000023  00000-0  68584-5 0  9993
2 14632  81.2726  97.4270 0053035  37.2533 353.4889 14.00799539360985

Suivez SL-3 DEB en temps réel avec AllMySat

Download on the App Store